Погода в Светловодске

Погода в Светловодске : погода сейчас, прогноз погоды и архив. Всё, что Вы хотите узнать о погоде в Светловодске!

Хотите узнать прогноз погоды в Светловодске? Тогда Вам сюда: Погода в Светловодске

Поиск расширенной информации на нашем сайте:

Другие новости

Новости СМИ2

Главная страница сайта

Новости сайта

02.10.2013

Напоминаем, что на нашем новом сайте вы можете получить высокодетализированные прогнозы погоды по пунктам России, СНГ и мира (включающие важные для авиации метеовеличины, такие как направление и скорость ветра, видимость, явления погоды, количество и форма облачности, нижняя и верхняя граница облачности), а также ознакомиться с разнообразными материалами по авиационной метеорологии и подборкой полезных ссылок на эту тему.

Сайт Метеоцентр.Азия посвящён разработке технологий оптимизации авиаметеорологического обслуживания, включая проектирование и перспективное создание нескольких автоматизированных авиаметеорологических систем:
- система выпуска высокодетальных прогностических карт явлений погоды для нижнего воздушного пространства по России и ближнему зарубежью;
- система верификации прогнозов TAF (выпускаемых синоптиками официальных АМСГ РФ и ближнего зарубежья) и AUTOTAF (выпускаемых сайтом Метеоцентр.Азия) - выявление ошибок, онлайн-сопоставление с фактической погодой METAR, автоматическое внесение коррективов в прогнозы при резком отклонении фактической погоды от прогноза, подсчёт оправдываемости прогнозов по элементам и в целом;
- система обработки, анализа и отображения авиаметеорологической информации для применения провайдерами метеорологической информации.

Рекомендуем: Свежая информация стол обеденный италия на нашем сайте.

Погода в Светловодске - сегодня

Время (UTC), дата Ветер
(°,м/с) 
Видим.   Явления Облачность Т
(°С)
Тd
(°С)
f(%) Тe
(°С)
Pmin
(гПа)
dP
(гПа)
Po
(мм)
O2
(г/м3)
Тmin Tmax R s Состояние
почвы
03 23.06.17 220 (ЮЗ) 20000 м    3/0 средняя, верхняя 
[Ac und|Ci fib]
+16 +8.6 61 +17  1011.8  -0.1  751  285           
06 23.06.17 220 (ЮЗ) 20000 м    10/0 средняя, верхняя 
[Ac trans|Ci fib]
+21.4 +10 48 +23  1010.9  -0.7  751  279  +15.8         
09 23.06.17 320 (СЗ) 20000 м    8/0 средняя, верхняя 
[Ac lent|Ci fib]
+24.3 +9.7 40 +25  1010.4  -0.4  751  276           
12 23.06.17 320 (СЗ) 20000 м    10/5 600 м средняя, верхняя 
[Sc|Ac und|Ci fib]
+25.8 +10.5 38 +28  1008.1  -2.2  749  274           
15 23.06.17 230 (ЮЗ) 20000 м    10/5 600 м средняя 
[Sc|Ac As]
+26.7 +11.6 39 +30  1005  -3  747  272           
18 23.06.17 140 (ЮВ) 4000 м  в посл. час ливневой дождь  10/6 600 м кучево-дожд., средняя 
[Cb calv|Ac und]
+19 +17.4 90 +33  1004.3  -1  746  277    +27.2     
21 23.06.17 160 (Ю) 4500 м  в посл. час ливневой дождь  10/10 1000 м кучево-дожд. 
[Cb calv]
+18.4 +17.6 95 +34  1003.3  -1  745  277           
00 24.06.17 300 (СЗ) 4000 м  дымка{ливн. осадки}  8/4 600 м кучево-дожд., средняя, верхняя 
[Cb calv|Ac und|Ci fib]
+18.6 +17.6 94 +34  1002.7  -0.6  745  277         
03 24.06.17 340 (С) 4000 м  дымка  8/4 600 м средняя, верхняя 
[Sc|Ac lent|Ci fib]
+18.2 +16.5 90 +31  1003.7  745  278           
06 24.06.17 350 (С) 10 км    8/4 600 м средняя 
[Cu hum|Ac und]
+19.4 +15 76 +29  1006.2  2.5  747  278  +18       
09 24.06.17 350 (С) 10 км    8/6 600 м кучево-дожд., средняя 
[Cb calv|Ac und]
+21.7 +14.8 65 +30  1008.2  2.1  749  276           
12 24.06.17 300 (СЗ) 20000 м    8/3 600 м кучево-дожд., верхняя 
[Cb calv|Ci fib]
+22.8 +15.7 64 +33  1008.4  0.2  749  275           
15 24.06.17 320 (СЗ) 20000 м    10/3 1000 м средняя, верхняя 
[Cu med, cong|Ac trans|Ci fib]
+24.6 +16.3 60 +36  1008.6  0.3  749  273           
18 24.06.17 тихо ()   20000 м  {ливн. осадки}  10/8 600 м кучево-дожд., средняя 
[Cb calv|Ac und]
+22.1 +15.6 67 +32  1008.7  749  276    +25.4  0.0     
21 24.06.17 270 (З) 29000 м    10/10 900 м 
[Sc]
+20.9 +16.4 75 +32  1010.1  1.3  750  277           
00 25.06.17 280 (З) 20000 м  {ливн. осадки}  10/10 540 м кучево-дожд. 
[Cb calv]
+19.7 +16.6 82 +33  1010.4  0.3  750  278      0.0     
03 25.06.17 320 (СЗ) 20000 м  {ливн. осадки}  9/8 570 м кучево-дожд., средняя 
[Cb calv|Ac trans]
+20 +15.3 74 +29  1010.9  0.5  751  279           
06 25.06.17 300 (СЗ) 20000 м  {ливн. осадки}  6/3 600 м средняя, верхняя 
[Cu med, cong|Ac und|Ci fib]
+21.8 +16.5 72 +33  1012.1  1.3  752  277  +19.4    0.3     
09 25.06.17 300 (СЗ) 20000 м    4/4 1000 м 
[Cu med, cong]
+23 +16.1 65 +34  1012.9  0.8  752  276           
12 25.06.17 320 (СЗ) 20000 м    3/3 1000 м 
[Cu med, cong]
+24.6 +15.7 58 +34  1013.1  0.2  753  275           
15 25.06.17 290 (З) 20000 м    1/1 1000 м 
[Cu med, cong]
+25.6 +15.4 53 +35  1012.2  -0.8  752  274           
18 25.06.17 160 (Ю) 20000 м    4/0 верхняя 
[Ci fib]
+23.5 +16.3 64 +34  1012.8  0.5  752  276    +26       
21 25.06.17 190 (Ю) 24000 м    10/0 средняя 
[Ac und]
+22 +15.3 66 +31  1012.7  -0.2  752  277           
00 26.06.17 180 (Ю) 19000 м    ясно 
+21.2 +15.1 68 +30  1012.5  -0.2  752  278           
03 26.06.17 240 (ЮЗ) 10 км    10/0 средняя, верхняя 
[Ac und|Ci fib]
+22.7 +17 70 +35  1012.2  -0.2  752  276           
Время (UTC), дата Ветер
(°,м/с) 
Видим.   Явления Облачность Т
(°С)
Тd
(°С)
f(%) Тe
(°С)
Pmin
(гПа)
dP
(гПа)
Po
(мм)
O2
(г/м3)
Тmin Tmax R s Состояние
почвы

Для получения пояснительной информации подведите курсор к названию столбца.

ПОГОДА в Светловодске - архив

Всё, что Вы хотите узнать о погоде в Светловодске - удобно и подробно!

Выберите нужную дату (начиная с 1 января 2015* года) и нажмите кнопку "Найти".
Будут отображены архивные сводки погоды по пункту Светловодск, начиная с указанной даты.


Отображать данные в формате CSV (для использования в таблицах Excel)


Внимание! Наш архив погоды предназначен исключительно для личного некоммерческого использования в познавательных целях. Если Вам необходимы официальные справки о состоянии погоды (для производственных, юридических, коммерческих и т.п. целей), обращайтесь в органы Росгидромета.

*Примечание: данная дата относится к архиву по метеостанциям СССР (Россия, СНГ, Балтия).
Архив по метеостанциям Зарубежной Европы и Азии (кроме Китая) хранится 10 дней, по другим регионам земного шара (Китай, Африка, Америка, Австралия, Океания) - 1 день.

Светловодск - район местоположения метеостанции


Название, широта, долгота, высота метеостанции:
Светловодск 49.1°ш. 33.2°д. 84 м над ур. моря [Украина]

Дополнительная информация

В oтличие oт бoльшинства пoгoдных сайтoв мы публикуем пoдрoбную метеoинфoрмацию в детальнoм прoфессиoнальнoм фoрмате.

Характеристики температуры и влажнoсти вoздуха измеряются на высoте 2 м в тени вдали oт зданий и деревьев.
Скoрoсть ветра измеряется на высoте 10 м (на урoвне рoста челoвека скoрoсть ветра ниже в 1.5-2 раза). Если метеoстанция нахoдится в гoрoде или в лесу, тo скoрoсть ветра занижена на 2-4 м/с пo сравнению с oткрытым местoм. Скoрoсть ветра над акватoриями крупных рек и oзёр, а также на вершинах хoлмoв на 2-5 м/с выше, чем в oбычных услoвиях.
Атмoсфернoе давление в разных тoчках местнoсти мoжет значительнo oтличаться oт давления на метеoстанции, в зависимoсти oт услoвий рельефа (при пoдъёме на 10 м давление пoнижается примернo на 1 мм рт.ст.).